LiveATC.Net - Listen to live air traffic control over the Internet!


ICAO: KEST  IATA: EST   Airport: Estherville Municipal Airport
City: Estherville   State/Province: Iowa
Country: United States   Continent: North America
KEST METAR Weather: KEST 010652Z AUTO 33005KT 10SM CLR 18/14 A3000 RMK AO2 SLP152 T01780139
KEST Flight Activity (FlightAware)
KEST Airport Info   (iFlightPlanner)
KEST VFR Sectional Chart   (iFlightPlanner) 
KEST IFR Low Altitude Chart   (iFlightPlanner) 
KEST IFR High Altitude Chart   (iFlightPlanner) 

KEST CTAF
Feed Status: UP   Listeners: 0
Listen in your browser - HTML5 player (in browser, HTML5)
Click here to listen with your own player (launches your MP3 player)
Archive Access: KEST CTAF
FacilityFrequency
Estherville CTAF122.975

NOTICE

Unauthorized use prohibited. See LiveATC.net Terms of Service


Airport/ARTCC Code
Frequency Search
(e.g., 124.400, 128.75)
Site-wide search
 


Browse Feeds
Top 50 Feeds
HF Oceanic Feeds
Coverage Map
Bad Weather Areas

LiveATC FAQ
Offer LiveATC feed
Contact LiveATC.net
Press Inquiries

LiveATC on iPhone
LiveATC on Android

LiveATC Mobile
(Mobile browser)

ATC Audio Archives
Interesting Recordings

LiveATC Forums


Home Page
About LiveATC.net


Terms of Use
Privacy Policy

AIRMETs/SIGMETs

FAA Airport Status
NAS Status
Arrival Demand


Server Software By:
Icecast.org
Liquidsoap